Retour au catalogue

STARLINK-36824

ActifCommunicationsVLEO
NORAD 67953·PAYLOAD·🇺🇸 United States

Lancé Feb 24, 2026 depuis Vandenberg Space Force Base

Loading…

Prochains Passages (prochaines 24 heures)

TLE

FraisSource: CelesTrak SupGP

Époque: Sep 14, 2026, 22:42 UTC

1 67953C 26037X   26257.94631944 -.00010239  00000+0 -37082-3 0  2576
2 67953  43.0033 202.2064 0001345 261.4143  28.2203 15.27585826    12

Suivez STARLINK-36824 en temps réel avec AllMySat

Download on the App Store